DW8454 Weather Reports


Display with metric or nautical units.
time (UTC)temp
F
wind
direction
speed
MPH
gust
MPH
rain 1hr
in
rain 24hr
in
rain mn
in
humidity
%
barometer
mb
20260901013230 73 227 0.0 0.0 0.00 0.00 0.00 88 1014.4
20260901012230 74 227 0.0 0.0 0.00 0.00 0.00 87 1014.2
20260901010123 75 227 0.0 0.0 0.00 0.00 0.00 84 1014.2
20260901005141 76 227 0.0 0.0 0.00 0.00 0.00 84 1014.0
20260901002952 76 227 0.0 0.0 0.00 0.01 0.00 83 1013.4
20260901001959 77 227 0.0 0.0 0.00 0.01 0.00 83 1013.7
20260831235846 78 290 4.0 9.0 0.00 0.01 0.00 79 1014.2
20260831234853 79 282 4.0 9.0 0.00 0.01 0.00 81 1014.5
20260831233849 80 265 3.0 6.0 0.00 0.01 0.00 80 1014.5
20260831232835 81 267 2.0 5.0 0.00 0.01 0.00 78 1014.4
20260831231819 81 257 2.0 5.0 0.00 0.01 0.00 77 1014.5
20260831230757 81 266 2.0 5.0 0.00 0.01 0.00 77 1014.7
20260831225820 82 264 2.0 5.0 0.00 0.01 0.00 75 1014.7
20260831224812 82 266 1.0 4.0 0.00 0.01 0.00 76 1014.8
20260831223826 82 266 1.0 4.0 0.00 0.01 0.00 76 1014.9
20260831222842 82 268 1.0 4.0 0.00 0.01 0.00 75 1014.9
20260831221845 83 306 1.0 5.0 0.00 0.01 0.00 74 1014.9
20260831220841 84 292 2.0 5.0 0.00 0.01 0.00 70 1014.8
20260831215845 85 295 1.0 5.0 0.00 0.01 0.00 69 1014.7
20260831213637 86 268 1.0 3.0 0.00 0.01 0.00 69 1014.7
20260831212622 84 278 1.0 4.0 0.00 0.01 0.00 69 1014.7
20260831211644 86 228 1.0 4.0 0.00 0.01 0.00 67 1014.8
20260831210654 88 285 0.0 2.0 0.00 0.01 0.00 67 1014.9
20260831205656 86 273 1.0 3.0 0.00 0.01 0.00 70 1015.1
20260831204652 85 299 1.0 4.0 0.00 0.01 0.00 70 1015.2
20260831203656 85 312 1.0 4.0 0.00 0.01 0.00 69 1015.2
20260831201527 85 305 2.0 5.0 0.00 0.01 0.00 71 1015.1
20260831200514 87 286 2.0 5.0 0.00 0.01 0.00 68 1015.1
20260831195512 86 262 2.0 4.0 0.00 0.01 0.00 66 1015.2
20260831193400 85 290 1.0 6.0 0.00 0.01 0.00 67 1014.9
20260831192424 83 265 3.0 6.0 0.00 0.01 0.00 68 1015.0
20260831190317 82 270 1.0 4.0 0.00 0.01 0.00 72 1015.4
20260831185306 83 288 3.0 6.0 0.00 0.01 0.00 70 1015.4
20260831184230 84 283 2.0 6.0 0.00 0.01 0.00 67 1015.6
20260831183241 84 281 3.0 8.0 0.00 0.01 0.00 67 1015.7
20260831182248 85 278 3.0 9.0 0.00 0.01 0.00 68 1015.7
20260831181230 85 278 4.0 9.0 0.00 0.01 0.00 67 1015.8
20260831180246 85 281 4.0 8.0 0.00 0.01 0.00 66 1016.1
20260831175250 85 265 5.0 10.0 0.00 0.01 0.00 68 1016.2
20260831174312 86 296 4.0 12.0 0.00 0.01 0.00 66 1016.2
20260831173327 86 322 5.0 12.0 0.00 0.01 0.00 66 1016.2
20260831172340 86 290 3.0 8.0 0.00 0.01 0.00 68 1016.2
20260831171353 86 267 4.0 7.0 0.00 0.01 0.00 67 1016.2
20260831170347 86 239 4.0 11.0 0.00 0.01 0.00 68 1016.2
20260831165402 87 258 4.0 11.0 0.00 0.01 0.00 66 1016.2
20260831164348 86 231 4.0 8.0 0.00 0.01 0.00 69 1016.2
20260831162241 85 271 2.0 7.0 0.00 0.01 0.00 72 1016.3
20260831161223 83 290 3.0 7.0 0.00 0.01 0.00 73 1016.3
20260831155042 85 188 3.0 8.0 0.00 0.01 0.00 71 1016.1
20260831154015 84 273 3.0 8.0 0.00 0.01 0.00 73 1016.1
20260831152956 81 245 3.0 6.0 0.00 0.01 0.00 74 1016.2
20260831151943 81 279 3.0 6.0 0.00 0.01 0.00 75 1016.2
20260831151005 80 211 2.0 6.0 0.00 0.01 0.00 75 1016.3
20260831145942 80 246 2.0 6.0 0.00 0.01 0.00 75 1016.2
20260831144950 80 246 3.0 7.0 0.00 0.01 0.00 74 1016.3
20260831144000 81 265 2.0 7.0 0.00 0.01 0.00 74 1016.3
20260831141839 79 194 1.0 6.0 0.00 0.01 0.00 80 1016.2
20260831135752 78 261 1.0 5.0 0.00 0.01 0.00 82 1016.3
20260831133625 75 243 1.0 4.0 0.00 0.01 0.00 84 1016.2
20260831132615 75 207 0.0 4.0 0.00 0.01 0.00 85 1016.4
20260831131613 74 230 0.0 2.0 0.00 0.01 0.00 84 1016.4
20260831130539 74 219 0.0 2.0 0.00 0.01 0.00 86 1016.4
20260831125517 73 223 0.0 1.0 0.00 0.01 0.00 86 1016.4
20260831123422 73 184 0.0 3.0 0.00 0.01 0.00 87 1016.2
20260831122423 73 185 0.0 2.0 0.00 0.01 0.00 87 1016.2
20260831121355 73 190 1.0 5.0 0.00 0.01 0.00 88 1016.1
20260831115219 72 205 0.0 3.0 0.00 0.01 0.00 88 1016.1
20260831114225 72 189 0.0 3.0 0.00 0.01 0.00 89 1016.3
20260831110907 71 205 0.0 3.0 0.00 0.01 0.00 90 1016.1
20260831105851 71 231 0.0 3.0 0.00 0.01 0.00 91 1016.0
20260831104859 72 216 0.0 2.0 0.00 0.01 0.00 89 1016.1
20260831103905 72 224 0.0 3.0 0.00 0.01 0.00 88 1015.9
20260831102930 72 201 0.0 3.0 0.00 0.01 0.00 88 1015.7
20260831101955 72 216 0.0 2.0 0.00 0.01 0.00 88 1015.6
20260831095800 72 215 0.0 3.0 0.00 0.01 0.00 88 1015.4
20260831094739 72 218 0.0 3.0 0.00 0.01 0.00 88 1015.5
20260831093744 72 219 1.0 3.0 0.00 0.01 0.00 87 1015.5
20260831092749 72 208 1.0 4.0 0.00 0.01 0.00 87 1015.5
20260831091809 72 219 0.0 4.0 0.00 0.01 0.00 87 1015.6
20260831090821 72 203 0.0 0.0 0.00 0.01 0.00 87 1015.5
20260831084653 72 215 1.0 5.0 0.00 0.01 0.00 87 1015.7
20260831083625 72 198 1.0 5.0 0.00 0.01 0.00 86 1015.7
20260831082621 72 217 2.0 4.0 0.00 0.01 0.00 86 1015.6
20260831081552 72 187 2.0 6.0 0.00 0.01 0.00 86 1015.6
20260831080523 72 240 2.0 6.0 0.00 0.01 0.00 86 1015.6
20260831075501 72 233 1.0 4.0 0.00 0.01 0.00 86 1015.6
20260831074503 72 210 1.0 4.0 0.00 0.01 0.00 85 1015.8
20260831073432 72 195 1.0 5.0 0.00 0.01 0.00 85 1015.8
20260831072408 72 216 2.0 6.0 0.00 0.01 0.00 85 1015.7
20260831071349 72 208 1.0 5.0 0.00 0.01 0.00 86 1015.9
20260831070403 72 211 2.0 5.0 0.00 0.01 0.00 86 1016.0
20260831065345 72 205 2.0 5.0 0.00 0.01 0.00 86 1015.8
20260831064357 72 232 2.0 6.0 0.00 0.01 0.00 86 1016.0
20260831063328 72 194 3.0 6.0 0.00 0.01 0.00 86 1015.9
20260831062323 72 209 2.0 6.0 0.00 0.01 0.00 87 1016.1
20260831061301 72 200 2.0 5.0 0.00 0.01 0.00 86 1016.1
20260831060326 72 213 2.0 6.0 0.00 0.01 0.00 87 1016.2
20260831055330 72 203 3.0 6.0 0.00 0.01 0.00 87 1016.2
20260831054327 72 215 2.0 5.0 0.00 0.01 0.00 88 1016.2
20260831053326 72 195 1.0 4.0 0.00 0.01 0.00 88 1016.4
20260831052258 72 213 1.0 3.0 0.00 0.01 0.00 89 1016.4
20260831050133 72 219 2.0 5.0 0.00 0.01 0.00 88 1016.2
20260831045114 72 248 1.0 5.0 0.00 0.01 0.00 89 1016.2
20260831041828 72 214 0.0 5.0 0.00 0.01 0.00 89 1016.4
20260831040806 72 189 1.0 4.0 0.00 0.01 0.00 89 1016.5
20260831035816 72 205 0.0 4.0 0.00 0.01 0.01 89 1016.6
20260831034808 72 244 0.0 2.0 0.00 0.01 0.01 90 1016.6
20260831033748 72 238 0.0 0.0 0.00 0.01 0.01 90 1016.6
20260831032802 72 230 0.0 2.0 0.00 0.01 0.01 90 1016.7
20260831031823 71 225 0.0 0.0 0.00 0.01 0.01 90 1016.5
20260831030803 71 221 0.0 0.0 0.00 0.01 0.01 91 1016.7
20260831023549 71 101 0.0 0.0 0.00 0.01 0.01 92 1017.0
20260831022540 71 128 0.0 3.0 0.00 0.01 0.01 91 1017.0
20260831021515 70 112 0.0 2.0 0.00 0.01 0.01 93 1017.1
20260831015329 69 100 0.0 0.0 0.00 0.01 0.01 97 1017.5
20260831014354 69 86 0.0 1.0 0.00 0.01 0.01 97 1017.6